VIR22E EDDF-EGLL

Flight info

Callsign VIR22E
Flight time 1h 16m
Altitude 38000
Route OBOKA3W/25C OBOKA Z29 TORNU DCT ABNED L980 LOGAN
Aircraft A346/H-SDE2E3FGHIJ3J4J5M1RWXY/LB1D1

Departure

Time 2026-05-04 16:40
Airport Frankfurt Main Airport (EDDF)

Arrival

Time 2026-05-04 17:56
Airport London Heathrow Airport (EGLL)
Time Latitude Longitude Altitude Speed Heading
2026-05-04 16:12 50.04645 8.57266 375 ft 0 kts 298°
2026-05-04 16:29 50.04623 8.57312 376 ft 2 kts 331°
2026-05-04 16:30 50.04581 8.57315 375 ft 2 kts 28°
2026-05-04 16:31 50.04560 8.57283 374 ft 1 kts 66°
2026-05-04 16:31 50.04586 8.57387 375 ft 2 kts 70°
2026-05-04 16:32 50.04588 8.57396 375 ft 0 kts 70°
2026-05-04 16:34 50.04590 8.57406 375 ft 2 kts 70°
2026-05-04 16:35 50.04525 8.57538 376 ft 10 kts 149°
2026-05-04 16:35 50.04506 8.57864 378 ft 14 kts 70°
2026-05-04 16:36 50.04543 8.58018 379 ft 15 kts 70°
2026-05-04 16:36 50.04625 8.58363 381 ft 15 kts 70°
2026-05-04 16:37 50.04642 8.58556 382 ft 6 kts 146°
2026-05-04 16:37 50.04606 8.58581 382 ft 6 kts 156°
2026-05-04 16:37 50.04503 8.58624 382 ft 4 kts 212°
2026-05-04 16:38 50.04483 8.58579 381 ft 0 kts 250°
2026-05-04 16:39 50.04483 8.58577 381 ft 0 kts 250°
2026-05-04 16:39 50.04478 8.58553 381 ft 12 kts 251°
2026-05-04 16:40 50.04023 8.56653 367 ft 165 kts 250°
2026-05-04 16:40 50.03148 8.52978 1613 ft 187 kts 252°
2026-05-04 16:41 50.02025 8.49328 3030 ft 198 kts 227°
2026-05-04 16:41 49.98087 8.47374 4959 ft 218 kts 188°
2026-05-04 16:42 49.93589 8.45862 6938 ft 241 kts 196°
2026-05-04 16:43 49.90644 8.42987 8388 ft 262 kts 234°
2026-05-04 16:43 49.88914 8.38180 10420 ft 259 kts 250°
2026-05-04 16:43 49.88581 8.35419 11251 ft 267 kts 267°
2026-05-04 16:44 49.90678 8.22943 12934 ft 351 kts 303°
2026-05-04 16:45 49.93761 8.16889 12950 ft 358 kts 310°
2026-05-04 16:46 49.99322 8.08996 12951 ft 360 kts 317°
2026-05-04 16:46 50.03131 8.03952 12958 ft 361 kts 317°
2026-05-04 16:47 50.06995 7.98785 13667 ft 375 kts 317°
2026-05-04 16:47 50.10907 7.93542 15753 ft 375 kts 316°
2026-05-04 16:48 50.16942 7.85439 18178 ft 389 kts 316°
2026-05-04 16:48 50.19014 7.82643 18999 ft 393 kts 316°
2026-05-04 16:49 50.23166 7.77050 20531 ft 403 kts 317°
2026-05-04 16:49 50.27931 7.72228 21974 ft 417 kts 330°
2026-05-04 16:50 50.33278 7.68478 23347 ft 427 kts 334°
2026-05-04 16:50 50.38802 7.64742 24487 ft 441 kts 334°
2026-05-04 16:51 50.44476 7.60850 25664 ft 452 kts 333°
2026-05-04 16:51 50.47366 7.58857 26323 ft 456 kts 332°
2026-05-04 16:51 50.53210 7.54779 27529 ft 463 kts 331°
2026-05-04 16:52 50.58887 7.49929 28696 ft 467 kts 324°
2026-05-04 16:52 50.61634 7.47159 29247 ft 470 kts 323°
2026-05-04 16:53 50.67096 7.41456 30682 ft 468 kts 320°
2026-05-04 16:53 50.74176 7.31377 32969 ft 451 kts 304°
2026-05-04 16:54 50.76091 7.27548 33624 ft 447 kts 300°
2026-05-04 16:55 50.82070 7.10646 35817 ft 437 kts 291°
2026-05-04 16:55 50.84805 7.02124 36535 ft 439 kts 291°
2026-05-04 16:56 50.87595 6.93488 37168 ft 442 kts 292°
2026-05-04 16:56 50.91803 6.80407 37925 ft 449 kts 292°
2026-05-04 16:57 50.96033 6.67183 37930 ft 451 kts 292°
2026-05-04 16:58 51.01683 6.49391 37947 ft 452 kts 292°
2026-05-04 17:00 51.10073 6.22682 37936 ft 454 kts 292°
2026-05-04 17:01 51.15786 5.99490 37931 ft 449 kts 281°
2026-05-04 17:02 51.19243 5.80304 37938 ft 453 kts 287°
2026-05-04 17:03 51.22856 5.66434 37929 ft 454 kts 289°
2026-05-04 17:03 51.26537 5.52462 37931 ft 455 kts 289°
2026-05-04 17:04 51.31355 5.33996 37931 ft 456 kts 289°
2026-05-04 17:05 51.36202 5.15208 37939 ft 456 kts 289°
2026-05-04 17:06 51.39799 5.01184 37932 ft 456 kts 289°
2026-05-04 17:07 51.43010 4.88598 37939 ft 456 kts 289°
2026-05-04 17:07 51.45778 4.77690 37943 ft 456 kts 289°
2026-05-04 17:08 51.49355 4.63521 37944 ft 456 kts 289°
2026-05-04 17:09 51.51709 4.54140 37944 ft 458 kts 289°
2026-05-04 17:09 51.54087 4.44628 37941 ft 458 kts 289°
2026-05-04 17:10 51.59940 4.21009 37951 ft 457 kts 288°
2026-05-04 17:11 51.62275 4.11515 37955 ft 456 kts 288°
2026-05-04 17:12 51.65760 3.97277 37960 ft 457 kts 288°
2026-05-04 17:13 51.71536 3.73483 37958 ft 458 kts 288°
2026-05-04 17:14 51.76123 3.54393 37959 ft 458 kts 289°
2026-05-04 17:15 51.79540 3.40046 37968 ft 458 kts 289°
2026-05-04 17:16 51.83370 3.20944 37970 ft 454 kts 278°
2026-05-04 17:16 51.84090 3.05807 37975 ft 451 kts 265°
2026-05-04 17:17 51.83866 3.00760 37974 ft 451 kts 263°
2026-05-04 17:18 51.82540 2.80716 37970 ft 453 kts 262°
2026-05-04 17:19 51.81180 2.60495 37974 ft 453 kts 262°
2026-05-04 17:20 51.79775 2.40403 37982 ft 454 kts 262°
2026-05-04 17:20 51.78723 2.25708 37986 ft 454 kts 261°
2026-05-04 17:21 51.77511 2.05880 37979 ft 455 kts 263°
2026-05-04 17:22 51.76916 1.95729 37977 ft 455 kts 263°
2026-05-04 17:23 51.75676 1.75432 37973 ft 456 kts 263°
2026-05-04 17:24 51.74723 1.60278 37970 ft 456 kts 263°
2026-05-04 17:25 51.73494 1.39949 37972 ft 457 kts 263°
2026-05-04 17:26 51.72273 1.19918 37039 ft 450 kts 262°
2026-05-04 17:26 51.71239 1.05276 36244 ft 429 kts 260°
2026-05-04 17:27 51.70495 0.96012 35918 ft 406 kts 260°
2026-05-04 17:27 51.69846 0.86991 34717 ft 408 kts 261°
2026-05-04 17:28 51.69226 0.78042 33241 ft 400 kts 261°
2026-05-04 17:29 51.68284 0.64807 30599 ft 398 kts 262°
2026-05-04 17:29 51.67335 0.51634 27720 ft 393 kts 262°
2026-05-04 17:30 51.66391 0.38691 24866 ft 385 kts 262°
2026-05-04 17:31 51.65764 0.30250 22989 ft 378 kts 261°
2026-05-04 17:31 51.64843 0.18038 20301 ft 370 kts 261°
2026-05-04 17:32 51.63742 0.10426 18825 ft 354 kts 234°
2026-05-04 17:33 51.57510 0.06976 16727 ft 330 kts 162°
2026-05-04 17:33 51.55491 0.08599 16095 ft 326 kts 142°
2026-05-04 17:34 51.53115 0.18010 14197 ft 313 kts 81°
2026-05-04 17:34 51.53435 0.21438 13574 ft 310 kts 80°
2026-05-04 17:35 51.54383 0.31515 11723 ft 302 kts 81°
2026-05-04 17:35 51.54948 0.38107 10612 ft 293 kts 81°
2026-05-04 17:35 51.55274 0.41314 10102 ft 287 kts 71°
2026-05-04 17:36 51.56141 0.44140 9606 ft 281 kts 51°
2026-05-04 17:36 51.57517 0.46254 9113 ft 275 kts 31°
2026-05-04 17:36 51.59233 0.47521 8676 ft 267 kts 12°
2026-05-04 17:36 51.61039 0.47844 8297 ft 257 kts 355°
2026-05-04 17:37 51.62742 0.47302 7921 ft 250 kts 338°
2026-05-04 17:37 51.64260 0.45987 7540 ft 244 kts 321°
2026-05-04 17:37 51.65430 0.44094 7277 ft 241 kts 306°
2026-05-04 17:37 51.66226 0.41745 7089 ft 236 kts 289°
2026-05-04 17:38 51.66572 0.39215 7029 ft 229 kts 274°
2026-05-04 17:38 51.66502 0.36679 7007 ft 231 kts 263°
2026-05-04 17:38 51.66277 0.34088 7005 ft 231 kts 262°
2026-05-04 17:38 51.66038 0.31547 6983 ft 231 kts 262°
2026-05-04 17:39 51.65571 0.26415 6992 ft 232 kts 263°
2026-05-04 17:39 51.65344 0.23839 6996 ft 232 kts 263°
2026-05-04 17:39 51.65119 0.21276 6995 ft 231 kts 263°
2026-05-04 17:40 51.64895 0.18724 6995 ft 231 kts 263°
2026-05-04 17:40 51.64672 0.16180 7003 ft 231 kts 263°
2026-05-04 17:40 51.64473 0.13567 6997 ft 241 kts 266°
2026-05-04 17:40 51.64409 0.10730 7008 ft 266 kts 271°
2026-05-04 17:41 51.64510 0.07708 7007 ft 273 kts 276°
2026-05-04 17:41 51.64746 0.04644 7002 ft 273 kts 277°
2026-05-04 17:41 51.64896 0.01603 7003 ft 273 kts 274°
2026-05-04 17:41 51.64983 -0.01440 7002 ft 274 kts 273°
2026-05-04 17:42 51.65055 -0.04516 7003 ft 273 kts 273°
2026-05-04 17:42 51.65122 -0.07593 7000 ft 271 kts 273°
2026-05-04 17:42 51.65184 -0.10538 6995 ft 257 kts 273°
2026-05-04 17:42 51.65241 -0.13320 6993 ft 243 kts 272°
2026-05-04 17:43 51.65150 -0.16025 6976 ft 240 kts 251°
2026-05-04 17:43 51.64226 -0.18109 6982 ft 232 kts 216°
2026-05-04 17:43 51.62788 -0.19261 7006 ft 232 kts 204°
2026-05-04 17:43 51.61310 -0.20243 6770 ft 231 kts 204°
2026-05-04 17:44 51.59805 -0.21261 6435 ft 233 kts 203°
2026-05-04 17:44 51.58249 -0.21771 6109 ft 235 kts 170°
2026-05-04 17:44 51.56827 -0.20617 5860 ft 229 kts 130°
2026-05-04 17:44 51.55901 -0.18574 5585 ft 228 kts 123°
2026-05-04 17:45 51.55013 -0.16481 5286 ft 224 kts 123°
2026-05-04 17:45 51.54129 -0.14458 4946 ft 220 kts 124°
2026-05-04 17:45 51.53074 -0.12739 4574 ft 220 kts 156°
2026-05-04 17:45 51.51594 -0.12502 4287 ft 215 kts 201°
2026-05-04 17:46 51.50336 -0.13723 3935 ft 213 kts 221°
2026-05-04 17:46 51.49258 -0.15384 3504 ft 217 kts 229°
2026-05-04 17:46 51.48278 -0.17211 3240 ft 220 kts 237°
2026-05-04 17:46 51.47784 -0.19481 3015 ft 213 kts 275°
2026-05-04 17:47 51.48029 -0.21774 3051 ft 211 kts 288°
2026-05-04 17:47 51.48460 -0.24051 3045 ft 211 kts 291°
2026-05-04 17:47 51.48920 -0.26277 3043 ft 211 kts 291°
2026-05-04 17:47 51.49396 -0.28530 3040 ft 212 kts 291°
2026-05-04 17:48 51.49871 -0.30763 3039 ft 212 kts 291°
2026-05-04 17:48 51.50348 -0.32995 3040 ft 212 kts 291°
2026-05-04 17:48 51.50826 -0.35239 3041 ft 212 kts 291°
2026-05-04 17:48 51.51276 -0.37492 3033 ft 213 kts 283°
2026-05-04 17:49 51.51432 -0.39862 3041 ft 215 kts 275°
2026-05-04 17:49 51.51467 -0.42257 3041 ft 215 kts 273°
2026-05-04 17:49 51.51476 -0.44680 3041 ft 216 kts 272°
2026-05-04 17:49 51.51478 -0.47084 3040 ft 216 kts 272°
2026-05-04 17:50 51.51476 -0.49502 3041 ft 216 kts 272°
2026-05-04 17:50 51.51472 -0.51885 3039 ft 215 kts 272°
2026-05-04 17:50 51.51468 -0.54266 2848 ft 213 kts 272°
2026-05-04 17:50 51.51465 -0.56638 2581 ft 214 kts 272°
2026-05-04 17:51 51.51460 -0.59011 2437 ft 208 kts 272°
2026-05-04 17:51 51.51453 -0.61311 2284 ft 203 kts 272°
2026-05-04 17:51 51.51442 -0.63557 2072 ft 202 kts 273°
2026-05-04 17:51 51.51427 -0.65816 2009 ft 202 kts 272°
2026-05-04 17:52 51.51302 -0.68073 1999 ft 202 kts 253°
2026-05-04 17:52 51.50505 -0.69796 1971 ft 198 kts 213°
2026-05-04 17:52 51.49300 -0.70382 1979 ft 193 kts 175°
2026-05-04 17:52 51.48113 -0.69658 1970 ft 176 kts 132°
2026-05-04 17:53 51.47583 -0.67993 1989 ft 167 kts 95°
2026-05-04 17:53 51.47566 -0.66140 1997 ft 166 kts 82°
2026-05-04 17:53 51.47661 -0.64291 1978 ft 167 kts 83°
2026-05-04 17:53 51.47715 -0.62417 1775 ft 167 kts 85°
2026-05-04 17:54 51.47728 -0.60563 1550 ft 163 kts 86°
2026-05-04 17:54 51.47727 -0.58805 1325 ft 152 kts 86°
2026-05-04 17:54 51.47727 -0.57170 1130 ft 145 kts 86°
2026-05-04 17:54 51.47732 -0.55538 947 ft 145 kts 86°
2026-05-04 17:55 51.47729 -0.53929 769 ft 145 kts 88°
2026-05-04 17:55 51.47730 -0.52306 589 ft 144 kts 85°
2026-05-04 17:55 51.47746 -0.50708 398 ft 144 kts 88°
2026-05-04 17:55 51.47746 -0.49107 207 ft 144 kts 87°
2026-05-04 17:56 51.47751 -0.47513 98 ft 127 kts 88°
2026-05-04 17:56 51.47759 -0.46458 98 ft 63 kts 90°
2026-05-04 17:56 51.47739 -0.46172 98 ft 11 kts 143°
2026-05-04 17:56 51.47672 -0.46109 98 ft 2 kts 147°
2026-05-04 17:57 51.47671 -0.46108 98 ft 0 kts 147°
2026-05-04 17:57 51.47669 -0.46105 98 ft 2 kts 147°
2026-05-04 17:57 51.47640 -0.46077 97 ft 7 kts 147°
2026-05-04 17:57 51.47583 -0.46068 97 ft 10 kts 194°
2026-05-04 17:58 51.47515 -0.46137 97 ft 12 kts 254°
2026-05-04 17:58 51.47515 -0.46286 97 ft 14 kts 270°
2026-05-04 17:58 51.47516 -0.46465 97 ft 17 kts 269°
2026-05-04 17:58 51.47514 -0.46675 97 ft 18 kts 264°
2026-05-04 17:59 51.47456 -0.46754 97 ft 8 kts 150°